CES5288 ZGGG-ZSOF

Flight info

Callsign CES5288
Flight time 1h 27m
Altitude 35100
Route MIKIP9 MIKIP A461 BUBDA/K0889S1040 W56 REBIS/K0887S1070 W56 IDPOG A581 WHA R343 MIDOX MID02A
Aircraft B77W/H-SDE1E2E3FGHIJ2J3J4J5M1RWXY/LB1D1

Departure

Time 2026-04-23 03:17
Airport Guangzhou Baiyun International Airport (ZGGG)

Arrival

Time 2026-04-23 04:44
Airport Hefei Xinqiao International Airport (ZSOF)
Time Latitude Longitude Altitude Speed Heading
2026-04-23 02:41 23.36939 113.31780 56 ft 0 kts 264°
2026-04-23 03:05 23.36939 113.31792 56 ft 2 kts 264°
2026-04-23 03:05 23.36941 113.31808 56 ft 2 kts 264°
2026-04-23 03:06 23.36942 113.31825 56 ft 2 kts 264°
2026-04-23 03:06 23.36944 113.31841 56 ft 2 kts 264°
2026-04-23 03:06 23.36946 113.31857 56 ft 2 kts 248°
2026-04-23 03:06 23.36953 113.31871 56 ft 2 kts 231°
2026-04-23 03:07 23.36964 113.31883 56 ft 2 kts 216°
2026-04-23 03:07 23.36976 113.31891 56 ft 2 kts 201°
2026-04-23 03:07 23.36990 113.31895 56 ft 2 kts 191°
2026-04-23 03:07 23.37005 113.31898 56 ft 1 kts 193°
2026-04-23 03:08 23.37009 113.31900 56 ft 0 kts 193°
2026-04-23 03:09 23.36995 113.31896 56 ft 3 kts 193°
2026-04-23 03:10 23.36956 113.31887 56 ft 7 kts 188°
2026-04-23 03:10 23.36895 113.31896 56 ft 10 kts 162°
2026-04-23 03:10 23.36821 113.31927 56 ft 11 kts 158°
2026-04-23 03:10 23.36774 113.31968 56 ft 8 kts 115°
2026-04-23 03:11 23.36758 113.32032 56 ft 8 kts 105°
2026-04-23 03:11 23.36719 113.32070 56 ft 8 kts 174°
2026-04-23 03:11 23.36663 113.32062 56 ft 8 kts 193°
2026-04-23 03:11 23.36592 113.32043 56 ft 12 kts 194°
2026-04-23 03:12 23.36502 113.32018 56 ft 14 kts 194°
2026-04-23 03:12 23.36395 113.31989 56 ft 16 kts 193°
2026-04-23 03:12 23.36276 113.31957 56 ft 18 kts 194°
2026-04-23 03:12 23.36143 113.31921 56 ft 20 kts 194°
2026-04-23 03:13 23.35999 113.31883 56 ft 21 kts 194°
2026-04-23 03:13 23.35900 113.31856 56 ft 8 kts 194°
2026-04-23 03:13 23.35841 113.31840 56 ft 7 kts 194°
2026-04-23 03:13 23.35806 113.31831 56 ft 0 kts 194°
2026-04-23 03:14 23.35802 113.31830 56 ft 2 kts 194°
2026-04-23 03:14 23.35771 113.31821 56 ft 6 kts 194°
2026-04-23 03:15 23.35720 113.31825 56 ft 6 kts 137°
2026-04-23 03:15 23.35703 113.31876 56 ft 7 kts 104°
2026-04-23 03:15 23.35690 113.31930 56 ft 7 kts 102°
2026-04-23 03:15 23.35706 113.31973 56 ft 6 kts 32°
2026-04-23 03:16 23.35750 113.31989 56 ft 10 kts 15°
2026-04-23 03:16 23.35976 113.32050 57 ft 66 kts 13°
2026-04-23 03:16 23.37703 113.32523 237 ft 168 kts 11°
2026-04-23 03:17 23.38819 113.32814 981 ft 167 kts 11°
2026-04-23 03:17 23.39975 113.33160 1571 ft 174 kts 18°
2026-04-23 03:17 23.41070 113.33765 2053 ft 184 kts 32°
2026-04-23 03:17 23.42031 113.34663 2618 ft 187 kts 40°
2026-04-23 03:18 23.43003 113.35666 3009 ft 201 kts 41°
2026-04-23 03:18 23.44079 113.36790 3175 ft 228 kts 41°
2026-04-23 03:18 23.45275 113.38044 3548 ft 247 kts 41°
2026-04-23 03:18 23.46557 113.39389 3910 ft 266 kts 41°
2026-04-23 03:19 23.47928 113.40832 4495 ft 276 kts 41°
2026-04-23 03:19 23.49297 113.42275 5214 ft 279 kts 41°
2026-04-23 03:19 23.50838 113.43589 5782 ft 283 kts 22°
2026-04-23 03:19 23.52720 113.44224 6346 ft 286 kts
2026-04-23 03:20 23.54696 113.44617 7085 ft 287 kts
2026-04-23 03:20 23.56644 113.44978 7777 ft 290 kts
2026-04-23 03:20 23.58650 113.45355 8378 ft 296 kts
2026-04-23 03:20 23.60690 113.45744 9083 ft 298 kts
2026-04-23 03:21 23.62755 113.46139 9717 ft 302 kts
2026-04-23 03:21 23.64841 113.46538 10302 ft 309 kts
2026-04-23 03:21 23.67008 113.46949 10639 ft 325 kts
2026-04-23 03:21 23.69280 113.47382 11036 ft 339 kts
2026-04-23 03:22 23.71671 113.47513 11312 ft 349 kts 351°
2026-04-23 03:22 23.74171 113.47321 11638 ft 364 kts 349°
2026-04-23 03:22 23.76741 113.47095 12042 ft 378 kts 349°
2026-04-23 03:22 23.79414 113.46860 12625 ft 386 kts 350°
2026-04-23 03:23 23.82060 113.46629 13396 ft 387 kts 350°
2026-04-23 03:23 23.84782 113.46393 14213 ft 390 kts 350°
2026-04-23 03:23 23.87506 113.46155 14924 ft 397 kts 350°
2026-04-23 03:23 23.90267 113.45913 15627 ft 403 kts 350°
2026-04-23 03:24 23.93058 113.45670 16406 ft 407 kts 350°
2026-04-23 03:24 23.95911 113.45420 17145 ft 412 kts 351°
2026-04-23 03:24 23.98759 113.45172 17824 ft 417 kts 350°
2026-04-23 03:24 24.01668 113.44918 18444 ft 423 kts 350°
2026-04-23 03:25 24.04665 113.44656 18657 ft 428 kts 351°
2026-04-23 03:25 24.07669 113.44393 19106 ft 437 kts 350°
2026-04-23 03:25 24.10678 113.44133 19965 ft 434 kts 350°
2026-04-23 03:25 24.13703 113.43870 20693 ft 435 kts 349°
2026-04-23 03:26 24.16723 113.43607 21258 ft 440 kts 349°
2026-04-23 03:26 24.19823 113.43336 21808 ft 446 kts 349°
2026-04-23 03:26 24.22920 113.43066 22378 ft 450 kts 349°
2026-04-23 03:26 24.26070 113.42792 22949 ft 453 kts 349°
2026-04-23 03:27 24.29199 113.42520 23535 ft 456 kts 349°
2026-04-23 03:27 24.32376 113.42244 24116 ft 460 kts 349°
2026-04-23 03:27 24.35605 113.42051 24661 ft 468 kts 353°
2026-04-23 03:27 24.38888 113.42108 25156 ft 476 kts 354°
2026-04-23 03:28 24.42186 113.42200 25752 ft 479 kts 354°
2026-04-23 03:28 24.45557 113.42299 26342 ft 483 kts 354°
2026-04-23 03:28 24.48925 113.42398 26922 ft 486 kts 354°
2026-04-23 03:28 24.52315 113.42497 27465 ft 491 kts 354°
2026-04-23 03:29 24.55742 113.42596 28035 ft 494 kts 354°
2026-04-23 03:29 24.59228 113.42696 28576 ft 499 kts 353°
2026-04-23 03:29 24.62694 113.42795 29113 ft 503 kts 353°
2026-04-23 03:29 24.66185 113.42896 29747 ft 504 kts 353°
2026-04-23 03:30 24.69698 113.42998 30562 ft 501 kts 353°
2026-04-23 03:30 24.73165 113.43101 31502 ft 495 kts 352°
2026-04-23 03:30 24.76550 113.43202 32522 ft 485 kts 352°
2026-04-23 03:30 24.79920 113.43301 33455 ft 479 kts 352°
2026-04-23 03:31 24.83224 113.43394 34115 ft 478 kts 351°
2026-04-23 03:31 24.86554 113.43488 34722 ft 478 kts 351°
2026-04-23 03:31 24.89911 113.43581 35292 ft 479 kts 351°
2026-04-23 03:31 24.93243 113.43675 35855 ft 478 kts 351°
2026-04-23 03:32 24.96607 113.43771 36464 ft 477 kts 351°
2026-04-23 03:32 24.99977 113.43868 37035 ft 476 kts 351°
2026-04-23 03:32 25.06604 113.44056 37115 ft 475 kts 351°
2026-04-23 03:33 25.13226 113.44244 37117 ft 476 kts 351°
2026-04-23 03:33 25.19927 113.44435 37114 ft 475 kts 351°
2026-04-23 03:34 25.26579 113.44625 37118 ft 477 kts 351°
2026-04-23 03:34 25.33223 113.44817 37121 ft 476 kts 351°
2026-04-23 03:35 25.39833 113.45007 37123 ft 475 kts 351°
2026-04-23 03:35 25.46474 113.45197 37127 ft 475 kts 350°
2026-04-23 03:36 25.53124 113.45387 37129 ft 476 kts 350°
2026-04-23 03:36 25.59740 113.45579 37129 ft 474 kts 350°
2026-04-23 03:37 25.66392 113.45770 37126 ft 474 kts 350°
2026-04-23 03:37 25.73014 113.45962 37132 ft 474 kts 349°
2026-04-23 03:38 25.79641 113.46153 37129 ft 473 kts 350°
2026-04-23 03:38 25.86250 113.46345 37130 ft 473 kts 349°
2026-04-23 03:39 25.92841 113.46220 37138 ft 469 kts 346°
2026-04-23 03:39 25.99373 113.45931 37138 ft 467 kts 346°
2026-04-23 03:40 26.05911 113.45659 37141 ft 465 kts 346°
2026-04-23 03:40 26.12409 113.45400 37141 ft 465 kts 345°
2026-04-23 03:41 26.18920 113.45141 37143 ft 467 kts 346°
2026-04-23 03:41 26.25424 113.44891 37142 ft 465 kts 346°
2026-04-23 03:42 26.31939 113.44638 37146 ft 466 kts 345°
2026-04-23 03:42 26.38506 113.44383 37138 ft 468 kts 345°
2026-04-23 03:43 26.45041 113.44133 37135 ft 466 kts 345°
2026-04-23 03:43 26.51525 113.43882 37136 ft 468 kts 345°
2026-04-23 03:44 26.58054 113.43633 37138 ft 467 kts 345°
2026-04-23 03:44 26.64638 113.43379 37134 ft 468 kts 345°
2026-04-23 03:45 26.71142 113.43130 37141 ft 467 kts 345°
2026-04-23 03:45 26.77687 113.42879 37137 ft 467 kts 345°
2026-04-23 03:46 26.84263 113.42625 37135 ft 468 kts 345°
2026-04-23 03:46 26.90734 113.42378 37146 ft 467 kts 345°
2026-04-23 03:47 26.97298 113.42121 37144 ft 470 kts 345°
2026-04-23 03:47 27.03850 113.41870 37138 ft 468 kts 345°
2026-04-23 03:48 27.10398 113.41615 37139 ft 471 kts 344°
2026-04-23 03:48 27.16382 113.41387 37133 ft 466 kts 344°
2026-04-23 03:49 27.22907 113.41132 37131 ft 469 kts 344°
2026-04-23 03:49 27.29460 113.40876 37130 ft 472 kts 344°
2026-04-23 03:50 27.36064 113.40726 37135 ft 473 kts 347°
2026-04-23 03:50 27.42662 113.40890 37124 ft 476 kts 347°
2026-04-23 03:51 27.49326 113.41045 37127 ft 477 kts 347°
2026-04-23 03:51 27.56019 113.41187 37120 ft 479 kts 347°
2026-04-23 03:52 27.62693 113.41328 37128 ft 478 kts 347°
2026-04-23 03:52 27.69358 113.41631 37129 ft 478 kts 351°
2026-04-23 03:53 27.76044 113.42268 37127 ft 484 kts 351°
2026-04-23 03:53 27.82788 113.42896 37126 ft 487 kts 351°
2026-04-23 03:54 27.89558 113.43513 37128 ft 486 kts 351°
2026-04-23 03:54 27.96327 113.44119 37125 ft 484 kts 350°
2026-04-23 03:55 28.03078 113.44711 37136 ft 485 kts 351°
2026-04-23 03:55 28.09872 113.45304 37132 ft 488 kts 351°
2026-04-23 03:56 28.16616 113.45793 37128 ft 484 kts 350°
2026-04-23 03:56 28.23344 113.46267 37131 ft 484 kts 350°
2026-04-23 03:57 28.30154 113.46751 37128 ft 484 kts 350°
2026-04-23 03:57 28.36866 113.47231 37132 ft 486 kts 350°
2026-04-23 03:58 28.43637 113.47718 37131 ft 485 kts 350°
2026-04-23 03:58 28.50414 113.48198 37134 ft 488 kts 350°
2026-04-23 03:59 28.57184 113.48685 37140 ft 486 kts 350°
2026-04-23 03:59 28.63993 113.49171 37133 ft 484 kts 350°
2026-04-23 04:00 28.70764 113.49657 37134 ft 483 kts 350°
2026-04-23 04:00 28.77508 113.50139 37133 ft 486 kts 350°
2026-04-23 04:01 28.84268 113.50624 37138 ft 485 kts 350°
2026-04-23 04:01 28.91041 113.51112 37137 ft 485 kts 351°
2026-04-23 04:02 28.97864 113.51600 37137 ft 488 kts 351°
2026-04-23 04:02 29.04618 113.52089 37139 ft 488 kts 351°
2026-04-23 04:03 29.11472 113.52583 37143 ft 487 kts 351°
2026-04-23 04:03 29.18236 113.53073 37136 ft 487 kts 351°
2026-04-23 04:04 29.25043 113.53565 37130 ft 486 kts 351°
2026-04-23 04:04 29.31782 113.54083 37139 ft 487 kts 352°
2026-04-23 04:05 29.38597 113.54678 37136 ft 490 kts 352°
2026-04-23 04:05 29.45382 113.55272 37136 ft 488 kts 352°
2026-04-23 04:06 29.52191 113.55868 37128 ft 484 kts 352°
2026-04-23 04:06 29.58992 113.56457 37134 ft 487 kts 353°
2026-04-23 04:07 29.65704 113.57044 37131 ft 485 kts 353°
2026-04-23 04:07 29.72458 113.57631 37130 ft 485 kts 353°
2026-04-23 04:08 29.79242 113.58221 37132 ft 487 kts 353°
2026-04-23 04:08 29.86000 113.58813 37136 ft 484 kts 353°
2026-04-23 04:09 29.92768 113.59513 37126 ft 492 kts 359°
2026-04-23 04:09 29.96149 113.60474 37131 ft 506 kts
2026-04-23 04:09 29.99437 113.61961 37140 ft 511 kts 13°
2026-04-23 04:10 30.06017 113.65251 37128 ft 514 kts 14°
2026-04-23 04:10 30.12588 113.68548 37107 ft 514 kts 14°
2026-04-23 04:11 30.19195 113.71858 37105 ft 516 kts 14°
2026-04-23 04:11 30.25755 113.75148 37101 ft 513 kts 15°
2026-04-23 04:12 30.32332 113.78447 37107 ft 514 kts 15°
2026-04-23 04:12 30.38916 113.81751 37111 ft 518 kts 15°
2026-04-23 04:13 30.45537 113.85083 37107 ft 514 kts 15°
2026-04-23 04:13 30.52140 113.88405 37110 ft 517 kts 15°
2026-04-23 04:14 30.58671 113.91808 37104 ft 520 kts 20°
2026-04-23 04:14 30.64557 113.96858 37106 ft 535 kts 39°
2026-04-23 04:15 30.69176 114.03804 37126 ft 551 kts 53°
2026-04-23 04:16 30.75350 114.15113 37118 ft 552 kts 53°
2026-04-23 04:16 30.79020 114.22910 37126 ft 554 kts 65°
2026-04-23 04:17 30.81833 114.31297 37132 ft 557 kts 67°
2026-04-23 04:17 30.84529 114.39684 37139 ft 557 kts 67°
2026-04-23 04:18 30.87235 114.48119 37145 ft 556 kts 67°
2026-04-23 04:18 30.89968 114.56546 37146 ft 556 kts 67°
2026-04-23 04:19 30.92696 114.64966 37147 ft 556 kts 67°
2026-04-23 04:19 30.95414 114.73377 37130 ft 554 kts 68°
2026-04-23 04:20 30.98126 114.81789 37134 ft 556 kts 68°
2026-04-23 04:20 31.00830 114.90196 37135 ft 555 kts 68°
2026-04-23 04:21 31.03523 114.98595 37137 ft 554 kts 68°
2026-04-23 04:21 31.06212 115.07005 36902 ft 546 kts 68°
2026-04-23 04:21 31.07535 115.11152 36346 ft 543 kts 68°
2026-04-23 04:22 31.08866 115.15327 35073 ft 555 kts 67°
2026-04-23 04:22 31.10208 115.19537 33711 ft 567 kts 68°
2026-04-23 04:22 31.11610 115.23946 32404 ft 577 kts 68°
2026-04-23 04:22 31.12989 115.28324 31629 ft 574 kts 68°
2026-04-23 04:23 31.14367 115.32623 31516 ft 558 kts 67°
2026-04-23 04:23 31.15724 115.36811 31522 ft 540 kts 67°
2026-04-23 04:23 31.17050 115.40897 31531 ft 546 kts 67°
2026-04-23 04:23 31.18420 115.45122 31356 ft 562 kts 67°
2026-04-23 04:24 31.19806 115.49402 30608 ft 573 kts 67°
2026-04-23 04:24 31.21214 115.53766 30015 ft 567 kts 67°
2026-04-23 04:24 31.22585 115.58025 29410 ft 562 kts 67°
2026-04-23 04:24 31.23944 115.62251 28777 ft 558 kts 67°
2026-04-23 04:25 31.25308 115.66496 28099 ft 555 kts 68°
2026-04-23 04:25 31.26664 115.70721 27414 ft 551 kts 68°
2026-04-23 04:25 31.27997 115.74881 26724 ft 547 kts 68°
2026-04-23 04:25 31.29312 115.78992 26043 ft 543 kts 69°
2026-04-23 04:26 31.30618 115.83082 25354 ft 538 kts 68°
2026-04-23 04:26 31.31921 115.87167 24669 ft 534 kts 68°
2026-04-23 04:26 31.33220 115.91204 24100 ft 526 kts 68°
2026-04-23 04:26 31.34503 115.95125 24023 ft 507 kts 68°
2026-04-23 04:27 31.35726 115.98862 23871 ft 492 kts 68°
2026-04-23 04:27 31.36948 116.02602 23309 ft 488 kts 68°
2026-04-23 04:27 31.38154 116.06299 22573 ft 489 kts 68°
2026-04-23 04:28 31.40561 116.13689 21206 ft 486 kts 68°
2026-04-23 04:28 31.41750 116.17350 20544 ft 483 kts 68°
2026-04-23 04:28 31.42937 116.21007 19912 ft 479 kts 68°
2026-04-23 04:28 31.44106 116.24614 19255 ft 475 kts 68°
2026-04-23 04:29 31.45275 116.28226 18473 ft 473 kts 68°
2026-04-23 04:29 31.46412 116.31744 17669 ft 458 kts 68°
2026-04-23 04:29 31.47519 116.35172 17001 ft 441 kts 68°
2026-04-23 04:29 31.48581 116.38466 16276 ft 427 kts 68°
2026-04-23 04:30 31.49604 116.41641 15522 ft 415 kts 68°
2026-04-23 04:30 31.50603 116.44746 14813 ft 403 kts 68°
2026-04-23 04:30 31.51577 116.47772 14115 ft 391 kts 68°
2026-04-23 04:30 31.52516 116.50693 13401 ft 382 kts 68°
2026-04-23 04:31 31.53432 116.53547 12778 ft 370 kts 68°
2026-04-23 04:31 31.54335 116.56362 11984 ft 364 kts 68°
2026-04-23 04:31 31.55213 116.59101 11174 ft 358 kts 68°
2026-04-23 04:31 31.56068 116.61772 10719 ft 342 kts 68°
2026-04-23 04:32 31.56872 116.64286 10594 ft 319 kts 68°
2026-04-23 04:32 31.57623 116.66634 10467 ft 298 kts 68°
2026-04-23 04:32 31.58338 116.68872 10366 ft 287 kts 68°
2026-04-23 04:32 31.59028 116.71034 10223 ft 278 kts 68°
2026-04-23 04:33 31.59692 116.73113 10100 ft 268 kts 68°
2026-04-23 04:33 31.60335 116.75131 9979 ft 266 kts 68°
2026-04-23 04:33 31.61007 116.77235 9813 ft 279 kts 68°
2026-04-23 04:33 31.61690 116.79377 9452 ft 280 kts 69°
2026-04-23 04:34 31.62367 116.81507 9085 ft 279 kts 69°
2026-04-23 04:34 31.63049 116.83652 8739 ft 277 kts 69°
2026-04-23 04:34 31.63714 116.85746 8423 ft 275 kts 68°
2026-04-23 04:34 31.64379 116.87839 8102 ft 272 kts 69°
2026-04-23 04:35 31.65037 116.89912 7763 ft 270 kts 69°
2026-04-23 04:35 31.65695 116.91985 7438 ft 268 kts 69°
2026-04-23 04:35 31.66335 116.94005 7133 ft 265 kts 69°
2026-04-23 04:35 31.66972 116.96018 6823 ft 263 kts 69°
2026-04-23 04:36 31.67607 116.98025 6520 ft 259 kts 69°
2026-04-23 04:36 31.68227 116.99985 6219 ft 256 kts 69°
2026-04-23 04:36 31.68846 117.01940 5935 ft 254 kts 69°
2026-04-23 04:36 31.69453 117.03863 5634 ft 252 kts 68°
2026-04-23 04:37 31.70056 117.05773 5339 ft 249 kts 68°
2026-04-23 04:37 31.70663 117.07696 5054 ft 246 kts 68°
2026-04-23 04:37 31.71254 117.09569 4746 ft 242 kts 69°
2026-04-23 04:37 31.71845 117.11365 4682 ft 233 kts 61°
2026-04-23 04:38 31.72898 117.12727 4656 ft 223 kts 30°
2026-04-23 04:38 31.74361 117.13267 4585 ft 222 kts
2026-04-23 04:38 31.75870 117.12971 4318 ft 225 kts 343°
2026-04-23 04:38 31.77301 117.12177 4021 ft 228 kts 335°
2026-04-23 04:39 31.78713 117.11266 3740 ft 228 kts 333°
2026-04-23 04:39 31.80067 117.10356 3593 ft 219 kts 333°
2026-04-23 04:39 31.81342 117.09487 3551 ft 202 kts 333°
2026-04-23 04:39 31.82517 117.08689 3506 ft 192 kts 334°
2026-04-23 04:40 31.83675 117.07909 3309 ft 189 kts 334°
2026-04-23 04:40 31.84796 117.07154 3070 ft 185 kts 334°
2026-04-23 04:40 31.85909 117.06403 2833 ft 182 kts 334°
2026-04-23 04:40 31.86998 117.05668 2601 ft 178 kts 334°
2026-04-23 04:41 31.88063 117.04949 2367 ft 174 kts 333°
2026-04-23 04:41 31.89089 117.04256 2142 ft 168 kts 333°
2026-04-23 04:41 31.90082 117.03584 1927 ft 155 kts 333°
2026-04-23 04:41 31.91002 117.02963 1720 ft 151 kts 333°
2026-04-23 04:42 31.91908 117.02352 1522 ft 149 kts 333°
2026-04-23 04:42 31.92799 117.01749 1320 ft 148 kts 333°
2026-04-23 04:42 31.93694 117.01144 1117 ft 148 kts 333°
2026-04-23 04:42 31.94583 117.00538 927 ft 147 kts 332°
2026-04-23 04:43 31.95472 116.99932 713 ft 145 kts 332°
2026-04-23 04:43 31.96350 116.99333 522 ft 147 kts 332°
2026-04-23 04:43 31.97231 116.98746 318 ft 144 kts 332°
2026-04-23 04:43 31.98089 116.98170 224 ft 130 kts 331°
2026-04-23 04:44 31.98717 116.97742 223 ft 77 kts 330°
2026-04-23 04:44 31.99025 116.97533 223 ft 24 kts 330°
2026-04-23 04:44 31.99157 116.97440 223 ft 21 kts 327°
2026-04-23 04:44 31.99257 116.97327 223 ft 15 kts 308°
2026-04-23 04:45 31.99295 116.97263 223 ft 8 kts 303°
2026-04-23 04:45 31.99329 116.97201 223 ft 8 kts 302°
2026-04-23 04:45 31.99338 116.97141 223 ft 7 kts 238°
2026-04-23 04:45 31.99293 116.97124 223 ft 7 kts 167°
2026-04-23 04:46 31.99245 116.97150 223 ft 7 kts 150°
2026-04-23 04:46 31.99197 116.97180 223 ft 7 kts 156°
2026-04-23 04:46 31.99156 116.97170 223 ft 6 kts 236°
2026-04-23 04:46 31.99150 116.97118 223 ft 7 kts 272°
2026-04-23 04:47 31.99150 116.97038 223 ft 12 kts 268°
2026-04-23 04:47 31.99133 116.96922 223 ft 16 kts 262°
2026-04-23 04:47 31.99136 116.96782 223 ft 17 kts 276°
2026-04-23 04:47 31.99143 116.96688 223 ft 8 kts 274°
2026-04-23 04:48 31.99145 116.96619 223 ft 8 kts 270°
2026-04-23 04:48 31.99144 116.96551 223 ft 8 kts 268°
2026-04-23 04:48 31.99134 116.96484 223 ft 7 kts 242°
2026-04-23 04:48 31.99095 116.96470 223 ft 6 kts 173°
2026-04-23 04:49 31.99065 116.96474 223 ft 2 kts 173°
2026-04-23 04:49 31.99058 116.96474 223 ft 0 kts 173°